Location: Brede
(50.9167°N, 0.6000°E)
Time: 02:50:50
(UTC+00:00)

Cosmos 2219 - Pass Details

Date: 08 August 2020
Orbit: 834 x 860 km, 71.1° (Epoch: 27 September)

Event Time Altitude Azimuth Distance (km) Brightness Sun altitude
Exits shadow 00:31:55 25° 125° (SE) 1,616 4.4 -22.7°
Maximum altitude 00:33:06 27° 104° (ESE) 1,543 4.5 -22.7°
Drops below altitude 10° 00:37:45 10° 48° (NE) 2,454 6.3 -22.6°
Sets 00:40:30 0° 37° (NE) 3,393 7.4 -22.5°
